Regional Weather Roundup
Issued by NWS

Home | Current Version | Previous Version | Text Only | Print | Product List | Glossary Off
Versions: 1 2 3 4 5 6 7 8 9 10 11 12 13 14 15 16 17 18 19 20 21 22 23 24 25 26 27 28 29 30 31 32 33 34 35 36 37 38 39 40 41 42 43 44 45 46 47 48 49 50

969
ASUS44 KLIX 220005
RWRLA
LOUISIANA WEATHER ROUNDUP
NATIONAL WEATHER SERVICE NEW ORLEANS LA
700 PM CDT THU AUG 21 2014

NOTE: "FAIR" INDICATES FEW OR NO CLOUDS BELOW 12,000 FEET WITH NO
      SIGNIFICANT WEATHER AND/OR OBSTRUCTIONS TO VISIBILITY.
      SKY/WX - SKY CONDITION AND SIGNIFICANT WEATHER.
      TMP - AIR TEMPERATURE.    DP   - DEWPOINT TEMPERATURE.
      RH  - RELATIVE HUMIDITY.  PRES - PRESSURE.
      HX  - HEAT INDEX.         WCI  - WIND CHILL INDEX.

*  THESE STATIONS ARE NOT NWS OR FAA STATIONS AND ARE NOT UNDER
   NWS QUALITY CONTROL.

LAZ040-048-061>063-065-066-069-220100-
SOUTHEAST LOUISIANA

CITY           SKY/WX    TMP DP  RH WIND       PRES   REMARKS
N.O. AUDUBON     N/A     81  75  82 MISG        N/A
6HR MIN TEMP:  79; 6HR MAX TEMP:  82;

N.O. INTL ARPT CLOUDY    80  74  81 W5        30.10S
6HR MIN TEMP:  78; 6HR MAX TEMP:  94; 6HR PCP:  0.11;

N.O. LAKEFRONT CLOUDY    83  74  74 W9        30.10F
6HR MIN TEMP:  83; 6HR MAX TEMP:  92;

N.O. DOWNTOWN* FAIR      84  72  65 CALM      30.11S
6HR MIN TEMP:  84; 6HR MAX TEMP:  93; 6HR PCP:  0.01;

SLIDELL        PTCLDY    85  75  72 CALM      30.09S
6HR MIN TEMP:  85; 6HR MAX TEMP:  95;

BATON ROUGE    CLOUDY    79  75  87 CALM      30.10F
6HR MIN TEMP:  76; 6HR MAX TEMP:  95; 6HR PCP:  0.17;

BOOTHVILLE     MOCLDY    87  75  67 W6        30.11S HX  96
6HR MIN TEMP:  85; 6HR MAX TEMP:  90;

BELLE CHASSE   CLOUDY    81  74  79 CALM      30.10S
6HR MIN TEMP:  77; 6HR MAX TEMP:  94;

BOGALUSA*      FAIR      85  74  68 CALM      30.11R
6HR MIN TEMP:  85; 6HR MAX TEMP:  96;

GALLIANO*      NOT AVBL
NEW ROADS*     FAIR      78  74  87 CALM      30.10F
6HR MIN TEMP:  76; 6HR MAX TEMP:  90; 6HR PCP:  0.03;

GONZALES*      FAIR      78  78 100 S3        30.10F
6HR MIN TEMP:  78; 6HR MAX TEMP:  93; 6HR PCP:  0.01;

HAMMOND*       CLOUDY    77  72  83 CALM      30.12R
HOUMA*         PTCLDY    81  73  78 CALM      30.10
PORT FOURCHON* CLEAR     88  75  66 SW6       30.11F HX  97

$$

LAZ041-044-053-054-220100-
SOUTHWEST LOUISIANA

CITY           SKY/WX    TMP DP  RH WIND       PRES   REMARKS
LAKE CHARLES   CLOUDY    86  76  71 S5        30.07F HX  96
6HR MIN TEMP:  86; 6HR MAX TEMP:  92;

LAFAYETTE      CLOUDY    78  76  93 CALM      30.09F
6HR MIN TEMP:  76; 6HR MAX TEMP:  92; 6HR PCP:  0.06;

PATTERSON      CLOUDY    79  75  89 N3          N/A
SALT POINT       N/A     83  76  79 CALM      30.10F
6HR MIN TEMP:  81; 6HR MAX TEMP:  94; 6HR PCP:  0.01;

NEW IBERIA     CLOUDY    80  76  87 CALM      30.11S
6HR MIN TEMP:  77; 6HR MAX TEMP:  88; 6HR PCP:  0.13;

CHENAULT AIRPK CLEAR     88  73  62 S7        30.08F HX  96

$$

LAZ027-028-220100-
CENTRAL LOUISIANA

CITY           SKY/WX    TMP DP  RH WIND       PRES   REMARKS
FORT POLK      CLOUDY    82  75  79 SE6       30.08S
6HR MIN TEMP:  82; 6HR MAX TEMP:  93; 6HR PCP: TRACE;

ALEXANDRIA INT CLOUDY    75  73  93 E5        30.08R
6HR MIN TEMP:  75; 6HR MAX TEMP:  95; 6HR PCP:  0.13;

ALEXANDRIA     LGT RAIN  75  72  90 CALM      30.11R
6HR MIN TEMP:  73; 6HR MAX TEMP:  95; 6HR PCP:  1.32;


$$

LAZ001-002-220100-
NORTHWEST LOUISIANA

CITY           SKY/WX    TMP DP  RH WIND       PRES   REMARKS
SHREVEPORT     PTSUNNY   93  70  46 S8        30.02F HX  99
6HR MIN TEMP:  91; 6HR MAX TEMP:  96;

BARKSDALE AFB  MOSUNNY   94  69  43 S9        30.03S HX  99
6HR MIN TEMP:  92; 6HR MAX TEMP:  97;

DTN SHREVEPORT MOSUNNY   93  68  43 S9        30.02S HX  97
6HR MIN TEMP:  91; 6HR MAX TEMP:  96;


$$

LAZ014-016-220100-
NORTHEAST LOUISIANA

CITY           SKY/WX    TMP DP  RH WIND       PRES   REMARKS
MONROE         PTCLDY    81  70  69 SW8       30.10R
6HR MIN TEMP:  81; 6HR MAX TEMP:  94;

TALLULAH       CLOUDY    75  73  93 CALM      30.09S
6HR MIN TEMP:  75; 6HR MAX TEMP:  95; 6HR PCP:  1.54;


$$




USA.gov is the U.S. government's official web portal to all federal, state and local government web resources and services.